Simultaneous Nadir Overpasses (SNOs) Predictions

Prediction of SNOs between AQUA and NPP Satellite Orbit:

Table of predicted SNOs for the next 14.0 days since TLE Epoch: 7/31/2021
Index Date (AQUA) Time (AQUA) Lat,Lon (AQUA) SZA (AQUA ) Date (NPP) Time (NPP) Lat,Lon (NPP) SZA (NPP ) Distance(km) Time Diff (sec)
1 08/02/2021 05:32:33 -74.80, 152.60 98.40 08/02/2021 05:31:40 -74.79, 152.57 98.35 1.19 53
2 08/02/2021 06:21:34 76.03, -36.30 80.19 08/02/2021 06:21:58 76.02, -36.34 80.18 1.16 24
3 08/04/2021 21:48:51 -75.36, -90.03 98.37 08/04/2021 21:48:25 -75.36, -90.02 98.35 0.26 26
4 08/04/2021 22:37:54 76.47, 80.99 80.35 08/04/2021 22:38:45 76.47, 81.02 80.30 0.86 51
5 08/07/2021 13:17:24 70.48,-151.61 87.66 08/07/2021 13:16:10 70.59,-152.07 87.76 20.92 74
6 08/07/2021 14:05:07 -75.95, 27.58 98.35 08/07/2021 14:05:08 -75.96, 27.67 98.37 2.41 1
7 08/07/2021 14:50:47 81.55, -93.91 68.74 08/07/2021 14:52:00 80.93, -95.01 68.49 71.68 73
8 08/10/2021 05:32:28 74.97, -26.95 83.52 08/10/2021 05:31:40 74.97, -26.95 83.56 0.09 48
9 08/10/2021 06:21:33 -76.09, 143.90 97.78 08/10/2021 06:22:02 -76.09, 143.88 97.80 0.56 29
10 08/12/2021 21:48:51 75.25, 89.69 83.95 08/12/2021 21:48:31 75.24, 89.62 83.99 2.26 20



Historial Predications of SNOs between AQUA and NPP
